Back to catalog

DELTA 1 DEB

AliveSSO
NORAD 42650·DEBRIS·🇺🇸 United States

Launched Jun 12, 1975 from Vandenberg Space Force Base

Loading…

Next Passes (next 24 hours)

TLE

FreshSource: Space-Track

Epoch: Sep 14, 2026, 13:06 UTC

1 42650U 75052MK  26257.54619864  .00000407  00000-0  65129-3 0  9998
2 42650  99.7856  15.1210 0232355 159.6119 201.4477 13.44858955626983

Track DELTA 1 DEB in real time with AllMySat

Download on the App Store